Flag for Canada Weather past 2 weeks in Corner Brook, Newfoundland and Labrador, Canada

Now
36 °F

Fog.


Feels Like: 36 °F
Forecast: 39 / 64 °F
Wind: No wind

Location: Deer Lake

Current Time: Sep 18, 2014 at 7:26:22 AM

Latest Report: Sep 18, 2014 at 6:30 AM


Visibility: 10 mi

Pressure: 29.97 "Hg

Humidity: 100%

Dew point: 36 °F

Location of Corner BrookLocation

Historic Weather in Corner Brook — Graph

°F

Corner Brook temperature yesterday

Maximum temperature yesterday: 70 °F (at 12:30 PM)
Minimum temperature yesterday: 46 °F (at 6:30 AM)
Average temperature yesterday: 55 °F

Past Weeks' High & Low Weather Summary

 TemperatureHumidityPressure
High75 °F (Sep 3, 1:30 PM)100% (Sep 4, 4:30 AM)30.49 "Hg (Sep 4, 4:30 AM)
Low34 °F (Sep 14, 12:30 AM)33% (Sep 5, 5:30 PM)29.57 "Hg (Sep 7, 12:30 AM)
Average56 °F79%29.98 "Hg
* Reported Sep 3 5:30 AM — Sep 18 5:30 AM, Corner Brook, Weather by CustomWeather, © 2014

Note: Actual official high and low records may vary slightly from our data, if they occured in-between our weather recording intervals... More about our weather records

Advertising

Corner Brook weather history for previous 24 hours

 ConditionsComfort  
Time TempWeatherWind HumidityBarometerVisibility
5:30 AM
Sep 18
36 °FPartly cloudy.2 mph100%29.97 "Hg15 mi
4:30 AM39 °FPartly cloudy.2 mph100%29.96 "Hg15 mi
3:30 AM43 °FPartly cloudy.No wind93%29.97 "Hg15 mi
2:30 AM45 °FPassing clouds.No wind93%29.97 "Hg15 mi
1:30 AM50 °FPassing clouds.2 mph88%29.95 "Hg15 mi
12:30 AM50 °FPassing clouds.6 mph88%29.94 "Hg15 mi
11:30 PM
Sep 17
50 °FPassing clouds.7 mph88%29.92 "Hg15 mi
10:30 PM54 °FPassing clouds.8 mph82%29.90 "Hg15 mi
9:30 PM54 °FPassing clouds.7 mph82%29.90 "Hg15 mi
8:30 PM54 °FPassing clouds.7 mph82%29.88 "Hg15 mi
7:30 PM55 °FPassing clouds.7 mph77%29.87 "Hg15 mi
6:30 PM59 °FPassing clouds.8 mph68%29.85 "Hg15 mi
5:30 PM61 °FScattered clouds.16 mph68%29.84 "Hg15 mi
4:30 PM61 °FSprinkles. Broken clouds.13 mph72%29.82 "Hg15 mi
3:32 PM59 °FSprinkles. Broken clouds.7 mph82%29.81 "Hg15 mi
2:30 PM64 °FBroken clouds.20 mph60%29.80 "Hg15 mi
1:30 PMN/ABroken clouds.N/AN/AN/A15 mi
12:30 PM70 °FBroken clouds.15 mph53%29.82 "Hg15 mi
11:30 AM66 °FBroken clouds.18 mph56%29.83 "Hg15 mi
10:30 AM61 °FBroken clouds.14 mph68%29.84 "Hg15 mi
9:30 AM55 °FPartly sunny.5 mph72%29.84 "Hg15 mi
8:30 AM52 °FBroken clouds.No wind88%29.84 "Hg15 mi
7:30 AM48 °FSprinkles. Partly sunny.No wind94%29.84 "Hg15 mi
Weather by CustomWeather, © 2014

See weather overviewHow to use our weather pages